Date String (YYYY-MM-DD hh:mm:ss) UTC,Instrument flags,Ambient pressure (hPa),Sample flow (lpm),Bypass flow (lpm),Sample temperature (°C),Ambient temperature (°C),ASC tube jacket temperature (°C),LED temperature (°C),Box temperature (°C),Sample RH (%),Span deviation,Mass concentration (μg/m³),Mass concentration (μg/m³),Mass concentration (μg/m³)
DateTimeUTC,F1_M11,P_M11,Q1_M11,Q2_M11,T1_M11,T2_M11,T3_M11,T4_M11,T5_M11,U1_M11,ZSPAN_M11,X2_M11,X0_M11,X1_M11
2022-09-22 02:00:00,,0833.1,5.01,0.00,30.0,28.4,00.0,38.8,31.8,27.1,0000.0,0005.70,0008.15,0005.46
2022-09-22 02:01:00,,0833.0,4.99,0.00,30.0,28.4,00.0,38.8,31.8,27.5,0000.0,0005.71,0008.16,0005.47
2022-09-22 02:02:00,,0833.0,5.01,0.00,30.0,28.4,00.0,38.8,31.8,28.1,0000.0,0005.71,0008.13,0005.47
2022-09-22 02:03:00,,0833.0,4.99,0.00,30.0,28.3,00.0,38.8,31.8,27.4,0000.0,0005.70,0008.10,0005.47
2022-09-22 02:04:00,,0833.0,5.01,0.00,30.0,28.2,00.0,38.8,31.7,27.3,0000.0,0005.70,0008.13,0005.47
2022-09-22 02:05:00,,0833.1,5.00,0.00,30.0,28.2,00.0,38.8,31.7,27.2,0000.0,0005.73,0008.19,0005.48
2022-09-22 02:06:00,,0833.1,5.00,0.00,30.0,28.2,00.0,38.8,31.8,27.2,0000.0,0005.72,0008.16,0005.48
2022-09-22 02:07:00,,0833.1,5.01,0.00,29.9,28.1,00.0,38.8,31.7,27.2,0000.0,0005.69,0008.21,0005.47
2022-09-22 02:08:00,,0833.2,5.00,0.00,29.9,28.2,00.0,38.7,31.8,27.2,0000.0,0005.68,0008.16,0005.48
2022-09-22 02:09:00,,0833.2,5.01,0.00,29.9,28.2,00.0,38.7,31.8,27.2,0000.0,0005.72,0008.22,0005.50
2022-09-22 02:10:00,,0833.2,4.99,0.00,29.9,28.3,00.0,38.7,31.7,27.2,0000.0,0005.75,0008.29,0005.51
2022-09-22 02:11:00,,0833.3,5.00,0.00,29.9,28.3,00.0,38.7,31.8,27.2,0000.0,0005.76,0008.26,0005.51
2022-09-22 02:12:00,,0833.3,5.00,0.00,29.9,28.2,00.0,38.7,31.7,27.2,0000.0,0005.79,0008.27,0005.54
2022-09-22 02:13:00,,0833.3,5.01,0.00,29.9,28.2,00.0,38.7,31.7,27.2,0000.0,0005.82,0008.30,0005.58
2022-09-22 02:14:00,,0833.3,4.98,0.00,29.9,28.1,00.0,38.7,31.7,27.2,0000.0,0005.88,0008.35,0005.62
2022-09-22 02:15:00,,0833.4,5.01,0.00,29.9,28.0,00.0,38.7,31.7,27.1,0000.0,0005.91,0008.35,0005.66
2022-09-22 02:16:00,,0833.3,5.00,0.00,29.9,28.0,00.0,38.7,31.6,27.2,0000.0,0005.94,0008.36,0005.70
2022-09-22 02:17:00,,0833.3,5.00,0.00,29.9,28.0,00.0,38.7,31.6,27.2,0000.0,0006.00,0008.47,0005.74
2022-09-22 02:18:00,,0833.2,5.00,0.00,29.8,27.9,00.0,38.7,31.6,27.2,0000.0,0006.05,0008.47,0005.77
2022-09-22 02:19:00,,0833.2,5.00,0.00,29.8,27.9,00.0,38.7,31.6,27.2,0000.0,0006.08,0008.49,0005.78
2022-09-22 02:20:00,,0833.2,5.00,0.00,29.8,27.9,00.0,38.6,31.6,27.2,0000.0,0006.06,0008.44,0005.77
2022-09-22 02:21:00,,0833.2,5.01,0.00,29.8,28.0,00.0,38.6,31.6,27.2,0000.0,0005.99,0008.29,0005.74
2022-09-22 02:22:00,,0833.2,5.00,0.00,29.8,28.0,00.0,38.6,31.6,27.2,0000.0,0005.94,0008.19,0005.71
2022-09-22 02:23:00,,0833.2,5.00,0.00,29.8,28.1,00.0,38.6,31.6,27.3,0000.0,0005.85,0008.06,0005.65
2022-09-22 02:24:00,,0833.2,5.00,0.00,29.8,28.1,00.0,38.6,31.6,27.3,0000.0,0005.76,0007.94,0005.57
2022-09-22 02:25:00,,0833.1,4.99,0.00,29.8,28.1,00.0,38.6,31.6,27.4,0000.0,0005.67,0007.87,0005.50
2022-09-22 02:26:00,,0833.2,5.00,0.00,29.8,28.1,00.0,38.6,31.6,27.3,0000.0,0005.61,0007.83,0005.43
2022-09-22 02:27:00,,0833.2,5.01,0.00,29.8,28.1,00.0,38.6,31.6,27.2,0000.0,0005.56,0007.79,0005.38
2022-09-22 02:28:00,,0833.1,4.99,0.00,29.8,28.1,00.0,38.6,31.6,27.1,0000.0,0005.49,0007.70,0005.31
2022-09-22 02:29:00,,0833.2,5.00,0.00,29.8,28.0,00.0,38.6,31.6,27.1,0000.0,0005.41,0007.60,0005.25
2022-09-22 02:30:00,,0833.2,5.01,0.00,29.8,28.0,00.0,38.6,31.5,27.0,0000.0,0005.37,0007.59,0005.21
2022-09-22 02:31:00,,0833.3,5.01,0.00,29.7,28.0,00.0,38.6,31.5,27.1,0000.0,0005.36,0007.66,0005.19
2022-09-22 02:32:00,,0833.4,5.00,0.00,29.7,27.9,00.0,38.6,31.5,27.1,0000.0,0005.39,0007.69,0005.20
2022-09-22 02:33:00,,0833.5,5.00,0.00,29.7,27.9,00.0,38.6,31.5,27.0,0000.0,0005.43,0007.76,0005.23
2022-09-22 02:34:00,,0833.6,4.99,0.00,29.7,27.9,00.0,38.5,31.5,27.1,0000.0,0005.50,0007.86,0005.26
2022-09-22 02:35:00,,0833.5,5.00,0.00,29.7,27.9,00.0,38.5,31.5,27.0,0000.0,0005.60,0008.01,0005.34
2022-09-22 02:36:00,,0833.5,5.01,0.00,29.7,27.9,00.0,38.5,31.5,26.9,0000.0,0005.69,0008.08,0005.42
2022-09-22 02:37:00,,0833.5,4.99,0.00,29.7,27.8,00.0,38.5,31.5,26.9,0000.0,0005.80,0008.28,0005.51
2022-09-22 02:38:00,,0833.5,5.00,0.00,29.7,27.9,00.0,38.5,31.5,26.8,0000.2,0005.87,0008.32,0005.60
2022-09-22 02:39:00,,0833.5,5.00,0.00,29.7,27.8,00.0,38.5,31.4,26.8,0000.1,0005.91,0008.32,0005.66
2022-09-22 02:40:00,,0833.5,4.99,0.00,29.7,27.8,00.0,38.5,31.4,26.7,0000.0,0005.99,0008.39,0005.73
2022-09-22 02:41:00,,0833.5,5.00,0.00,29.7,27.8,00.0,38.5,31.4,26.7,0000.0,0006.08,0008.50,0005.81
2022-09-22 02:42:00,,0833.5,4.99,0.00,29.6,27.8,00.0,38.5,31.4,26.6,0000.0,0006.12,0008.43,0005.87
2022-09-22 02:43:00,,0833.5,5.00,0.00,29.6,27.8,00.0,38.5,31.4,27.1,0000.0,0006.18,0008.52,0005.92
2022-09-22 02:44:00,,0833.5,4.99,0.00,29.6,27.8,00.0,38.5,31.4,27.8,0000.0,0006.20,0008.53,0005.96
2022-09-22 02:45:00,,0833.5,5.00,0.00,29.6,27.7,00.0,38.4,31.4,27.1,0000.3,0006.26,0008.67,0006.00
2022-09-22 02:46:00,,0833.5,5.00,0.00,29.6,27.7,00.0,38.4,31.4,26.8,-000.2,0006.25,0008.67,0006.00
2022-09-22 02:47:00,,0833.5,5.01,0.00,29.6,27.8,00.0,38.4,31.4,26.8,-000.7,0006.24,0008.66,0006.00
2022-09-22 02:48:00,,0833.5,4.99,0.00,29.6,27.8,00.0,38.4,31.4,26.8,-001.6,0006.24,0008.61,0006.00
2022-09-22 02:49:00,,0833.4,5.01,0.00,29.6,27.8,00.0,38.4,31.4,26.7,-000.6,0006.23,0008.59,0006.00
2022-09-22 02:50:00,,0833.4,4.99,0.00,29.6,27.8,00.0,38.4,31.4,26.6,0000.0,0006.23,0008.62,0005.99
2022-09-22 02:51:00,,0833.4,5.00,0.00,29.6,27.8,00.0,38.4,31.4,26.6,0000.0,0006.24,0008.70,0006.00
2022-09-22 02:52:00,,0833.4,4.99,0.00,29.6,27.9,00.0,38.4,31.4,26.6,0000.0,0006.24,0008.70,0006.02
2022-09-22 02:53:00,,0833.4,5.01,0.00,29.6,27.9,00.0,38.4,31.4,26.6,0000.0,0006.27,0008.77,0006.04
2022-09-22 02:54:00,,0833.5,4.99,0.00,29.6,27.9,00.0,38.4,31.4,26.6,-000.2,0006.27,0008.77,0006.04
2022-09-22 02:55:00,,0833.4,5.01,0.00,29.6,27.9,00.0,38.4,31.4,26.6,-001.3,0006.29,0008.83,0006.04
2022-09-22 02:56:00,,0833.4,5.00,0.00,29.6,27.9,00.0,38.4,31.4,26.6,-001.2,0006.27,0008.90,0006.05
2022-09-22 02:57:00,,0833.4,4.99,0.00,29.6,27.9,00.0,38.4,31.4,26.5,-001.2,0006.28,0009.08,0006.05
2022-09-22 02:58:00,,0833.5,5.02,0.00,29.6,27.9,00.0,38.4,31.4,26.5,0000.0,0006.29,0009.13,0006.04
2022-09-22 02:59:00,,0833.5,4.99,0.00,29.6,27.9,00.0,38.4,31.4,26.5,-000.5,0006.27,0009.11,0006.01
